This is the latest recevied weather packets stored in our database for station/object IZ1UQG-N2. If no packets are shown the sender has not sent any weather packets the latest 10 day(s).
| Time | Temp. | Humidity | Pressure | Rain* | Wind** | Luminosity | Snow |
|---|---|---|---|---|---|---|---|
| 1776956213 | 21.11° C | 45% | 1016.7 hPa | 0 mm | - | 499 W/m² | - |
| 1776956153 | 21.11° C | 45% | 1016.7 hPa | 0 mm | - | 506 W/m² | - |
| 1776956093 | 21.11° C | 45% | 1016.6 hPa | 0 mm | - | 499 W/m² | - |
| 1776956044 | 21.11° C | 45% | 1016.6 hPa | 0 mm | - | 499 W/m² | - |
| 1776956032 | 21.11° C | 45% | 1016.6 hPa | 0 mm | - | 503 W/m² | - |
| 1776955972 | 21.11° C | 45% | 1016.5 hPa | 0 mm | - | 508 W/m² | - |
| 1776955912 | 21.11° C | 45% | 1016.5 hPa | 0 mm | - | 519 W/m² | - |
| 1776955863 | 21.11° C | 45% | 1016.6 hPa | 0 mm | - | 520 W/m² | - |
| 1776955853 | 21.11° C | 45% | 1016.6 hPa | 0 mm | - | 520 W/m² | - |
| 1776955793 | 20.56° C | 45% | 1016.7 hPa | 0 mm | - | 526 W/m² | - |
| 1776955732 | 20.56° C | 45% | 1016.7 hPa | 0 mm | - | 529 W/m² | - |
| 1776955684 | 20.56° C | 45% | 1016.5 hPa | 0 mm | - | 533 W/m² | - |
| 1776955672 | 20.56° C | 45% | 1016.5 hPa | 0 mm | - | 533 W/m² | - |
| 1776955612 | 20.56° C | 45% | 1016.6 hPa | 0 mm | - | 534 W/m² | - |
| 1776955553 | 20.56° C | 45% | 1016.7 hPa | 0 mm | - | 534 W/m² | - |
| 1776955504 | 20.56° C | 45% | 1016.7 hPa | 0 mm | - | 534 W/m² | - |
| 1776955492 | 20.56° C | 45% | 1016.8 hPa | 0 mm | - | 543 W/m² | - |
| 1776955432 | 20.56° C | 46% | 1016.9 hPa | 0 mm | - | 543 W/m² | - |
| 1776955373 | 20.56° C | 45% | 1016.7 hPa | 0 mm | - | 540 W/m² | - |
| 1776955324 | 20.56° C | 45% | 1016.7 hPa | 0 mm | - | 540 W/m² | - |
| 1776955312 | 20.56° C | 46% | 1016.6 hPa | 0 mm | - | 540 W/m² | - |
| 1776955252 | 20.56° C | 46% | 1016.8 hPa | 0 mm | - | 541 W/m² | - |
| 1776955192 | 20.56° C | 46% | 1016.8 hPa | 0 mm | - | 543 W/m² | - |
| 1776955143 | 20.56° C | 46% | 1016.8 hPa | 0 mm | - | 543 W/m² | - |
| 1776955133 | 20.56° C | 45% | 1016.8 hPa | 0 mm | - | 547 W/m² | - |
* Rain latest hour (hover to see other rain measurements)
** Current wind speed in m/s (hover to see current wind gust speed)